User: anonymous   Login
Location: Newark
(53.0000°N, 1.0000°W)
Time: 16:38:59
(UTC+00:00)
Language:

nSIGHT-1 - Orbit

View from above orbital plane
View from above orbital plane
View from above satellite
View from above satellite

Ground track
Ground track

The orbit data is extracted from the following two-line orbital elements,

1 42726U 98067MF  20025.32248714  .00045646  00000-0  18674-3 0  9995
2 42726  51.6292 250.9050 0001676 264.2978  95.7834 15.85596801152638
Epoch (UTC): 25 January 2020 07:44:22
Eccentricity: 0.0001676
inclination: 51.6292°
perigee height: 313 km
apogee height: 316 km
right ascension of ascending node: 250.9050°
argument of perigee: 264.2978°
revolutions per day: 15.85596801
mean anomaly at epoch: 95.7834°
orbit number at epoch: 15263

The dashed part of the orbit path shows where the satellite is in the earth's shadow,  

DLR